• In India
  • List of Countries
  • For 7 days
  • Water Temperature
  • Satellite Maps
  • Weather Map
  • Weather Widgets
  • user-avatar
    Login

    Hourly Weather Kurytyba

    Today, 23 June, Saturday

    Time Temperature Precipitation Wind Pressure Humidity
    00:00 +14°C° 0 mm 1 mps 683 mmHg 94%
    01:00 +13°C° 0 mm 1 mps 683 mmHg 94%
    02:00 +13°C° 0 mm 1 mps 683 mmHg 95%
    03:00 +13°C° 0 mm 1 mps 683 mmHg 95%
    04:00 +13°C° 0 mm 1 mps 683 mmHg 95%
    05:00 +13°C° 0 mm 1 mps 682 mmHg 95%
    06:00 +12°C° 0 mm 1 mps 682 mmHg 95%
    07:00 +14°C° 0 mm 1 mps 683 mmHg 89%
    08:00 +15°C° 0 mm 1 mps 683 mmHg 83%
    09:00 +18°C° 0 mm 1 mps 683 mmHg 77%
    10:00 +20°C° 0 mm 1 mps 684 mmHg 68%
    11:00 +22°C° 0 mm 1 mps 684 mmHg 58%
    12:00 +24°C° 0 mm 2 mps 684 mmHg 49%
    13:00 +24°C° 0 mm 2 mps 684 mmHg 51%
    14:00 +24°C° 0 mm 2 mps 683 mmHg 54%
    15:00 +24°C° 0 mm 2 mps 683 mmHg 56%
    16:00 +21°C° 0.1 mm 2 mps 682 mmHg 65%
    17:00 +20°C° 0.1 mm 1 mps 682 mmHg 75%
    18:00 +18°C° 0.1 mm 1 mps 682 mmHg 84%
    19:00 +16°C° 0 mm 1 mps 682 mmHg 86%
    20:00 +16°C° 0 mm 1 mps 683 mmHg 88%
    21:00 +15°C° 0 mm 1 mps 683 mmHg 91%
    22:00 +15°C° 0 mm 1 mps 683 mmHg 91%
    23:00 +15°C° 0 mm 1 mps 683 mmHg 91%

    Tomorrow, 24 June, Sunday

    Time Temperature Precipitation Wind Pressure Humidity
    00:00 +15°C° 0 mm 1 mps 683 mmHg 91%
    01:00 +15°C° 0 mm 1 mps 683 mmHg 90%
    02:00 +15°C° 0 mm 1 mps 683 mmHg 88%
    03:00 +16°C° 0 mm 1 mps 683 mmHg 87%
    04:00 +15°C° 0 mm 1 mps 683 mmHg 87%
    05:00 +15°C° 0 mm 1 mps 683 mmHg 87%
    06:00 +15°C° 0 mm 1 mps 683 mmHg 88%
    07:00 +16°C° 0 mm 1 mps 684 mmHg 83%
    08:00 +18°C° 0 mm 1 mps 684 mmHg 79%
    09:00 +19°C° 0 mm 1 mps 685 mmHg 75%
    10:00 +21°C° 0 mm 1 mps 685 mmHg 68%
    11:00 +23°C° 0 mm 1 mps 685 mmHg 61%
    12:00 +24°C° 0 mm 1 mps 685 mmHg 54%
    13:00 +24°C° 0.2 mm 1 mps 685 mmHg 59%
    14:00 +23°C° 0.2 mm 1 mps 684 mmHg 64%
    15:00 +22°C° 0.2 mm 1 mps 683 mmHg 70%
    16:00 +21°C° 0.2 mm 1 mps 683 mmHg 77%
    17:00 +19°C° 0.2 mm 1 mps 683 mmHg 84%
    18:00 +16°C° 0.2 mm 1 mps 683 mmHg 91%
    19:00 +16°C° 0.1 mm 1 mps 684 mmHg 93%
    20:00 +16°C° 0.1 mm 1 mps 684 mmHg 94%
    21:00 +15°C° 0.1 mm 1 mps 684 mmHg 96%
    22:00 +15°C° 0 mm 1 mps 684 mmHg 96%
    23:00 +15°C° 0 mm 1 mps 684 mmHg 97%

    Day after tomorrow, 25 June, Monday

    Time Temperature Precipitation Wind Pressure Humidity
    00:00 +15°C° 0 mm 1 mps 684 mmHg 97%
    01:00 +15°C° 0 mm 1 mps 684 mmHg 97%
    02:00 +15°C° 0 mm 1 mps 684 mmHg 97%
    03:00 +15°C° 0 mm 1 mps 683 mmHg 96%
    04:00 +15°C° 0 mm 1 mps 683 mmHg 97%
    05:00 +14°C° 0 mm 1 mps 683 mmHg 98%
    06:00 +14°C° 0 mm 1 mps 682 mmHg 98%
    07:00 +15°C° 0 mm 1 mps 683 mmHg 95%
    08:00 +16°C° 0 mm 1 mps 683 mmHg 92%
    09:00 +16°C° 0 mm 1 mps 684 mmHg 88%
    10:00 +18°C° 0 mm 2 mps 684 mmHg 77%
    11:00 +21°C° 0 mm 2 mps 684 mmHg 65%
    12:00 +24°C° 0 mm 3 mps 684 mmHg 54%
    13:00 +24°C° 0 mm 3 mps 683 mmHg 53%
    14:00 +25°C° 0 mm 3 mps 683 mmHg 51%
    15:00 +25°C° 0 mm 3 mps 682 mmHg 50%
    16:00 +23°C° 0 mm 2 mps 682 mmHg 58%
    17:00 +20°C° 0 mm 2 mps 681 mmHg 65%
    18:00 +20°C° 0 mm 1 mps 681 mmHg 73%
    19:00 +19°C° 0 mm 1 mps 681 mmHg 76%
    20:00 +18°C° 0 mm 1 mps 681 mmHg 78%
    21:00 +18°C° 0 mm 1 mps 682 mmHg 80%
    22:00 +18°C° 0 mm 1 mps 682 mmHg 81%
    23:00 +16°C° 0 mm 1 mps 682 mmHg 82%

    26 June, Tuesday

    Time Temperature Precipitation Wind Pressure Humidity
    00:00 +16°C° 0 mm 2 mps 682 mmHg 83%
    01:00 +16°C° 0 mm 1 mps 682 mmHg 83%
    02:00 +15°C° 0 mm 1 mps 681 mmHg 84%
    03:00 +15°C° 0 mm 1 mps 681 mmHg 84%
    04:00 +15°C° 0 mm 1 mps 681 mmHg 85%
    05:00 +15°C° 0 mm 1 mps 681 mmHg 85%
    06:00 +15°C° 0 mm 1 mps 681 mmHg 85%
    07:00 +16°C° 0 mm 1 mps 682 mmHg 80%
    08:00 +18°C° 0 mm 1 mps 682 mmHg 75%
    09:00 +19°C° 0 mm 1 mps 683 mmHg 70%
    10:00 +21°C° 0 mm 1 mps 683 mmHg 64%
    11:00 +23°C° 0 mm 1 mps 684 mmHg 57%
    12:00 +25°C° 0 mm 2 mps 684 mmHg 51%
    13:00 +24°C° 0.3 mm 2 mps 683 mmHg 56%
    14:00 +24°C° 0.3 mm 1 mps 683 mmHg 62%
    15:00 +24°C° 0.3 mm 1 mps 682 mmHg 68%
    16:00 +22°C° 0.7 mm 1 mps 682 mmHg 76%
    17:00 +20°C° 0.7 mm 1 mps 682 mmHg 83%
    18:00 +16°C° 0.7 mm 0 mps 682 mmHg 91%
    19:00 +16°C° 0.4 mm 0 mps 682 mmHg 92%
    20:00 +16°C° 0.4 mm 0 mps 683 mmHg 92%
    21:00 +16°C° 0.4 mm 0 mps 683 mmHg 93%
    22:00 +15°C° 0.2 mm 0 mps 683 mmHg 94%
    23:00 +15°C° 0.2 mm 0 mps 683 mmHg 96%

    27 June, Wednesday

    Time Temperature Precipitation Wind Pressure Humidity
    00:00 +15°C° 0.2 mm 0 mps 683 mmHg 97%
    01:00 +15°C° 0 mm 0 mps 682 mmHg 97%
    02:00 +15°C° 0 mm 0 mps 682 mmHg 97%
    03:00 +14°C° 0 mm 0 mps 682 mmHg 97%
    04:00 +14°C° 0 mm 0 mps 682 mmHg 98%
    05:00 +14°C° 0 mm 0 mps 682 mmHg 98%
    06:00 +13°C° 0 mm 0 mps 682 mmHg 98%
    07:00 +14°C° 0 mm 0 mps 683 mmHg 95%
    08:00 +15°C° 0 mm 0 mps 683 mmHg 91%
    09:00 +16°C° 0 mm 0 mps 684 mmHg 88%
    10:00 +20°C° 0.2 mm 1 mps 684 mmHg 80%
    11:00 +22°C° 0.2 mm 1 mps 684 mmHg 72%
    12:00 +23°C° 0.2 mm 1 mps 684 mmHg 63%
    13:00 +23°C° 1 mm 1 mps 684 mmHg 68%
    14:00 +23°C° 1 mm 1 mps 683 mmHg 73%
    15:00 +22°C° 1 mm 1 mps 683 mmHg 77%
    16:00 +21°C° 1.1 mm 1 mps 683 mmHg 81%
    17:00 +19°C° 1.1 mm 1 mps 683 mmHg 86%
    18:00 +16°C° 1.1 mm 0 mps 683 mmHg 90%
    19:00 +16°C° 0.2 mm 0 mps 683 mmHg 91%
    20:00 +15°C° 0.2 mm 0 mps 684 mmHg 91%
    21:00 +15°C° 0.2 mm 0 mps 684 mmHg 92%
    22:00 +15°C° 0.1 mm 0 mps 684 mmHg 92%
    23:00 +14°C° 0.1 mm 0 mps 684 mmHg 93%

    28 June, Thursday

    Time Temperature Precipitation Wind Pressure Humidity
    00:00 +14°C° 0.1 mm 0 mps 684 mmHg 93%
    01:00 +14°C° 0.1 mm 0 mps 684 mmHg 93%
    02:00 +14°C° 0.1 mm 0 mps 684 mmHg 93%
    03:00 +15°C° 0.1 mm 1 mps 684 mmHg 93%
    04:00 +15°C° 0.1 mm 1 mps 684 mmHg 94%
    05:00 +15°C° 0.1 mm 1 mps 684 mmHg 94%
    06:00 +15°C° 0.1 mm 1 mps 684 mmHg 95%
    07:00 +15°C° 0.1 mm 0 mps 684 mmHg 93%
    08:00 +15°C° 0.1 mm 0 mps 685 mmHg 91%
    09:00 +16°C° 0.1 mm 0 mps 685 mmHg 90%
    10:00 +17°C° 0.1 mm 0 mps 686 mmHg 83%
    11:00 +21°C° 0.1 mm 1 mps 686 mmHg 76%
    12:00 +22°C° 0.1 mm 1 mps 686 mmHg 69%
    13:00 +22°C° 0.7 mm 1 mps 685 mmHg 70%
    14:00 +22°C° 0.7 mm 1 mps 685 mmHg 72%
    15:00 +23°C° 0.7 mm 1 mps 685 mmHg 73%
    16:00 +21°C° 0.4 mm 1 mps 684 mmHg 78%
    17:00 +20°C° 0.4 mm 1 mps 684 mmHg 84%
    18:00 +18°C° 0.4 mm 1 mps 684 mmHg 89%
    19:00 +18°C° 0 mm 1 mps 685 mmHg 91%
    20:00 +16°C° 0 mm 1 mps 685 mmHg 93%
    21:00 +16°C° 0 mm 1 mps 685 mmHg 95%
    22:00 +16°C° 0 mm 1 mps 685 mmHg 96%
    23:00 +14°C° 0 mm 0 mps 685 mmHg 96%
    Show more